SM2GSR-2 Weather Reports


Display with metric or nautical units.
time (UTC)temp
F
wind
direction
speed
MPH
gust
MPH
rain 1hr
in
rain 24hr
in
rain mn
in
humidity
%
barometer
mb
20260506141003 43 71 0.0 0.0 0.00 0.00 0.00 58 1003.6
20260506140003 42 332 0.0 0.0 0.00 0.00 0.00 66 1003.4
20260506135003 40 331 0.0 0.0 0.00 0.00 0.00 68 1003.4
20260506134003 40 354 1.0 7.0 0.00 0.00 0.00 68 1003.6
20260506133503 41 339 6.0 8.0 0.00 0.00 0.00 67 1003.6
20260506133003 41 349 3.0 10.0 0.00 0.00 0.00 66 1003.5
20260506132503 42 345 3.0 8.0 0.00 0.00 0.00 63 1003.4
20260506132004 43 339 7.0 14.0 0.00 0.00 0.00 61 1003.4
20260506131503 44 340 9.0 16.0 0.00 0.00 0.00 59 1003.3
20260506130003 48 267 2.0 9.0 0.00 0.00 0.00 46 1003.0
20260506125503 47 239 1.0 8.0 0.00 0.00 0.00 46 1003.0
20260506125003 46 217 0.0 2.0 0.00 0.00 0.00 49 1003.0
20260506124503 45 274 1.0 7.0 0.00 0.00 0.00 51 1003.0
20260506123503 46 219 3.0 8.0 0.00 0.00 0.00 52 1002.9
20260506123004 45 273 0.0 0.0 0.00 0.00 0.00 53 1002.8
20260506122503 45 301 0.0 0.0 0.00 0.00 0.00 51 1002.8
20260506122003 45 348 0.0 0.0 0.00 0.00 0.00 53 1002.8
20260506121503 44 266 0.0 0.0 0.00 0.00 0.00 54 1002.8
20260506121004 43 289 0.0 0.0 0.00 0.00 0.00 54 1002.9
20260506120503 43 263 0.0 0.0 0.00 0.00 0.00 53 1002.9
20260506120004 43 300 0.0 0.0 0.00 0.00 0.00 51 1002.9
20260506115503 43 278 2.0 8.0 0.00 0.00 0.00 52 1002.9
20260506115003 43 276 4.0 9.0 0.00 0.00 0.00 51 1002.8
20260506114503 44 319 8.0 15.0 0.00 0.00 0.00 53 1002.7
20260506114003 44 249 3.0 12.0 0.00 0.00 0.00 58 1002.7
20260506113503 43 205 2.0 9.0 0.00 0.00 0.00 60 1002.7
20260506113003 42 249 0.0 0.0 0.00 0.00 0.00 62 1002.8
20260506112503 41 244 0.0 0.0 0.00 0.00 0.00 62 1002.7
20260506111503 41 251 0.0 7.0 0.00 0.00 0.00 60 1002.7
20260506111003 43 278 4.0 12.0 0.00 0.00 0.00 55 1002.7
20260506110503 44 250 5.0 12.0 0.00 0.00 0.00 52 1002.5
20260506110004 45 213 0.0 3.0 0.00 0.00 0.00 51 1002.4
20260506105504 45 264 1.0 6.0 0.00 0.00 0.00 54 1002.3
20260506105003 44 255 0.0 0.0 0.00 0.00 0.00 55 1002.3
20260506104003 43 284 0.0 0.0 0.00 0.00 0.00 53 1002.2
20260506103504 43 308 0.0 0.0 0.00 0.00 0.00 51 1002.2
20260506103003 44 307 4.0 9.0 0.00 0.00 0.00 51 1002.2
20260506101503 44 316 0.0 9.0 0.00 0.00 0.00 51 1002.0
20260506101003 44 294 1.0 9.0 0.00 0.00 0.00 51 1002.1
20260506100004 45 340 4.0 10.0 0.00 0.00 0.00 50 1002.0
20260506095503 44 286 0.0 13.0 0.00 0.00 0.00 52 1002.0
20260506094504 44 326 0.0 0.0 0.00 0.00 0.00 52 1001.9
20260506093503 44 324 5.0 10.0 0.00 0.00 0.00 52 1001.8
20260506093003 43 310 6.0 13.0 0.00 0.00 0.00 52 1001.7
20260506092503 43 270 3.0 12.0 0.00 0.00 0.00 54 1001.7
20260506092003 43 305 7.0 16.0 0.00 0.00 0.00 53 1001.8
20260506091503 43 260 0.0 8.0 0.00 0.00 0.00 55 1001.7
20260506091003 42 281 0.0 0.0 0.00 0.00 0.00 56 1001.7
20260506090504 42 277 0.0 0.0 0.00 0.00 0.00 57 1001.7
20260506090003 42 220 0.0 10.0 0.00 0.00 0.00 58 1001.6
20260506085503 42 226 1.0 8.0 0.00 0.00 0.00 57 1001.6
20260506084004 42 281 0.0 0.0 0.00 0.00 0.00 56 1001.5
20260506083503 42 331 0.0 6.0 0.00 0.00 0.00 57 1001.4
20260506083003 42 305 6.0 10.0 0.00 0.00 0.00 56 1001.5
20260506082003 42 329 0.0 0.0 0.00 0.00 0.00 58 1001.4
20260506081504 41 269 0.0 3.0 0.00 0.00 0.00 60 1001.4
20260506081003 41 280 5.0 10.0 0.00 0.00 0.00 59 1001.4
20260506080503 41 312 0.0 12.0 0.00 0.00 0.00 60 1001.2
20260506073503 39 314 6.0 10.0 0.00 0.00 0.00 65 1001.0
20260506073003 39 282 0.0 1.0 0.00 0.00 0.00 66 1000.9
20260506072503 39 306 1.0 10.0 0.00 0.00 0.00 68 1000.8
20260506071504 39 270 3.0 8.0 0.00 0.00 0.00 68 1000.7
20260506071004 39 309 0.0 0.0 0.00 0.00 0.00 68 1000.7
20260506070503 39 308 6.0 13.0 0.00 0.00 0.00 67 1000.7
20260506062503 39 287 6.0 9.0 0.00 0.00 0.00 68 1000.3
20260506062003 39 277 1.0 8.0 0.00 0.00 0.00 69 1000.2
20260506061503 38 264 5.0 12.0 0.00 0.00 0.00 70 1000.1
20260506051003 35 311 4.0 8.0 0.00 0.00 0.00 75 999.8
20260506050503 35 284 5.0 12.0 0.00 0.00 0.00 75 999.8
20260506045003 35 237 2.0 9.0 0.00 0.00 0.00 76 999.7
20260506044504 35 293 2.0 8.0 0.00 0.00 0.00 76 999.6
20260506044004 34 273 3.0 10.0 0.00 0.00 0.00 77 999.5
20260506043503 34 286 1.0 5.0 0.00 0.00 0.00 78 999.5
20260506043004 33 237 0.0 0.0 0.00 0.00 0.00 78 999.5
20260506042503 33 267 0.0 0.0 0.00 0.00 0.00 78 999.5
20260506042003 33 288 0.0 0.0 0.00 0.00 0.00 78 999.5
20260506041503 33 288 0.0 0.0 0.00 0.00 0.00 79 999.4
20260506041003 32 305 0.0 0.0 0.00 0.00 0.00 79 999.4
20260506040503 32 262 0.0 0.0 0.00 0.00 0.00 79 999.4
20260506040004 32 243 0.0 3.0 0.00 0.00 0.00 80 999.4
20260506035003 32 281 0.0 3.0 0.00 0.00 0.00 80 999.3
20260506034503 32 289 1.0 7.0 0.00 0.00 0.00 80 999.2
20260506034003 31 268 1.0 3.0 0.00 0.00 0.00 81 999.2
20260506033503 31 270 0.0 5.0 0.00 0.00 0.00 81 999.3
20260506033004 31 258 0.0 5.0 0.00 0.00 0.00 81 999.3
20260506032503 30 255 0.0 1.0 0.00 0.00 0.00 81 999.3
20260506032004 30 236 1.0 6.0 0.00 0.00 0.00 81 999.3
20260506031503 30 244 0.0 0.0 0.00 0.00 0.00 82 999.2
20260506031003 30 255 0.0 0.0 0.00 0.00 0.00 82 999.1
20260506030503 30 273 1.0 5.0 0.00 0.00 0.00 82 999.2
20260506030004 30 244 1.0 5.0 0.00 0.00 0.00 82 999.1
20260506025004 30 221 0.0 0.0 0.00 0.00 0.00 82 999.1
20260506024504 30 261 0.0 0.0 0.00 0.00 0.00 82 999.1
20260506024003 30 271 0.0 0.0 0.00 0.00 0.00 82 999.1
20260506023503 30 251 0.0 0.0 0.00 0.00 0.00 81 999.1
20260506022504 30 228 0.0 0.0 0.00 0.00 0.00 81 999.0
20260506022003 30 248 0.0 0.0 0.00 0.00 0.00 81 999.0
20260506021004 30 238 0.0 0.0 0.00 0.00 0.00 81 998.9
20260506020004 30 243 0.0 0.0 0.00 0.00 0.00 81 998.9
20260506015004 30 274 0.0 0.0 0.00 0.00 0.00 81 998.9
20260506014503 29 219 0.0 0.0 0.00 0.00 0.00 81 998.9
20260506014003 29 212 0.0 0.0 0.00 0.00 0.00 81 998.8
20260506013503 29 272 0.0 0.0 0.00 0.00 0.00 80 998.8
20260506013003 29 268 0.0 0.0 0.00 0.00 0.00 80 998.8
20260506012504 29 268 0.0 0.0 0.00 0.00 0.00 81 998.7
20260506012003 29 268 0.0 0.0 0.00 0.00 0.00 81 998.7
20260506011503 29 268 0.0 0.0 0.00 0.00 0.00 80 998.7
20260506011003 29 268 0.0 0.0 0.00 0.00 0.00 80 998.7
20260506010003 29 231 0.0 0.0 0.00 0.00 0.00 80 998.7
20260506005503 29 246 0.0 0.0 0.00 0.00 0.00 80 998.6
20260506005003 29 246 0.0 0.0 0.00 0.00 0.00 79 998.6
20260506004503 29 246 0.0 0.0 0.00 0.00 0.00 79 998.6
20260506003503 30 237 0.0 0.0 0.00 0.00 0.00 79 998.6
20260506003003 30 237 0.0 0.0 0.00 0.00 0.00 79 998.6
20260506002504 30 263 0.0 0.0 0.00 0.00 0.00 79 998.5
20260506002003 29 263 0.0 0.0 0.00 0.00 0.00 79 998.5
20260506001504 29 262 0.0 0.0 0.00 0.00 0.00 79 998.5
20260506001003 29 263 0.0 0.0 0.00 0.00 0.00 80 998.5
20260506000503 29 263 0.0 0.0 0.00 0.00 0.00 80 998.5
20260506000004 29 260 0.0 0.0 0.00 0.00 0.00 81 998.5
20260505235504 28 244 0.0 0.0 0.00 0.00 0.00 81 998.5
20260505234504 28 232 0.0 0.0 0.00 0.00 0.00 79 998.5
20260505233507 29 232 0.0 0.0 0.00 0.00 0.00 78 998.6
20260505233005 29 232 0.0 0.0 0.00 0.00 0.00 79 998.6
20260505232504 29 232 0.0 0.0 0.00 0.00 0.00 78 998.6
20260505232004 29 232 0.0 0.0 0.00 0.00 0.00 78 998.6
20260505231503 29 260 0.0 0.0 0.00 0.00 0.00 77 998.6
20260505231003 29 260 0.0 0.0 0.00 0.00 0.00 76 998.6
20260505230503 30 260 0.0 0.0 0.00 0.00 0.00 75 998.6
20260505225504 30 259 0.0 0.0 0.00 0.00 0.00 73 998.5
20260505225004 31 259 0.0 0.0 0.00 0.00 0.00 73 998.6
20260505224504 31 259 0.0 0.0 0.00 0.00 0.00 73 998.6
20260505223503 31 252 0.0 0.0 0.00 0.00 0.00 73 998.6
20260505223003 31 250 0.0 0.0 0.00 0.00 0.00 73 998.6
20260505222503 31 273 0.0 0.0 0.00 0.00 0.00 73 998.6
20260505222003 31 272 0.0 0.0 0.00 0.00 0.00 73 998.5
20260505221003 31 277 3.0 8.0 0.00 0.00 0.00 73 998.5
20260505220504 31 258 0.0 0.0 0.00 0.00 0.00 73 998.4
20260505220003 31 275 0.0 0.0 0.00 0.00 0.00 72 998.4
20260505215503 31 279 0.0 0.0 0.00 0.00 0.00 71 998.4
20260505215003 32 279 0.0 0.0 0.00 0.00 0.00 71 998.4
20260505214503 32 279 0.0 0.0 0.00 0.00 0.00 70 998.4
20260505214003 32 279 0.0 0.0 0.00 0.00 0.00 70 998.4
20260505213503 33 279 0.0 7.0 0.00 0.00 0.00 70 998.3
20260505212503 33 277 5.0 9.0 0.00 0.00 0.00 70 998.3
20260505212003 33 295 2.0 7.0 0.00 0.00 0.00 70 998.2
20260505211504 33 284 3.0 8.0 0.00 0.00 0.00 69 998.2
20260505211003 33 276 2.0 6.0 0.00 0.00 0.00 69 998.2
20260505210503 33 250 1.0 3.0 0.00 0.00 0.00 68 998.1
20260505210003 33 296 0.0 0.0 0.00 0.00 0.00 68 998.1
20260505205503 33 239 0.0 0.0 0.00 0.00 0.00 68 998.1
20260505205003 33 274 0.0 0.0 0.00 0.00 0.00 68 998.0
20260505204003 33 266 0.0 0.0 0.00 0.00 0.00 68 998.0
20260505203503 33 248 0.0 0.0 0.00 0.00 0.00 68 998.0
20260505203004 33 255 0.0 0.0 0.00 0.00 0.00 69 998.0
20260505202503 33 276 0.0 0.0 0.00 0.00 0.00 69 998.0
20260505201503 32 242 0.0 0.0 0.00 0.00 0.00 70 997.9
20260505201003 33 242 0.0 0.0 0.00 0.00 0.00 69 997.8
20260505200503 33 242 0.0 0.0 0.00 0.00 0.00 68 997.8
20260505195504 34 242 0.0 0.0 0.00 0.00 0.00 66 997.8
20260505195003 34 242 0.0 0.0 0.00 0.00 0.00 66 997.8
20260505194503 34 241 0.0 0.0 0.00 0.00 0.00 66 997.8
20260505194004 34 240 0.0 0.0 0.00 0.00 0.00 66 997.7
20260505193503 34 244 0.0 0.0 0.00 0.00 0.00 66 997.6
20260505193003 34 263 0.0 0.0 0.00 0.00 0.00 65 997.6
20260505192503 34 270 0.0 0.0 0.00 0.00 0.00 63 997.6
20260505192003 35 270 0.0 0.0 0.00 0.00 0.00 61 997.6
20260505191003 36 270 0.0 0.0 0.00 0.00 0.00 60 997.5
20260505190503 36 289 0.0 0.0 0.00 0.00 0.00 59 997.5
20260505190004 36 282 0.0 0.0 0.00 0.00 0.00 59 997.4
20260505185503 37 279 0.0 0.0 0.00 0.00 0.00 58 997.4
20260505185004 37 269 0.0 5.0 0.00 0.00 0.00 58 997.3
20260505184504 37 262 4.0 10.0 0.00 0.00 0.00 57 997.3
20260505184003 37 289 6.0 12.0 0.00 0.00 0.00 57 997.3
20260505183504 37 273 7.0 12.0 0.00 0.00 0.00 57 997.2
20260505183004 38 285 1.0 12.0 0.00 0.00 0.00 56 997.2
20260505182504 38 277 1.0 10.0 0.00 0.00 0.00 56 997.2
20260505182003 38 307 5.0 10.0 0.00 0.00 0.00 56 997.2
20260505181003 38 290 3.0 12.0 0.00 0.00 0.00 57 997.1
20260505180503 38 303 5.0 13.0 0.00 0.00 0.00 56 997.1
20260505180004 38 272 5.0 7.0 0.00 0.00 0.00 57 997.0
20260505175504 38 312 6.0 17.0 0.00 0.00 0.00 59 997.1
20260505175004 38 290 5.0 10.0 0.00 0.00 0.00 58 997.1
20260505174503 39 288 3.0 12.0 0.00 0.00 0.00 57 997.1
20260505174003 39 273 6.0 12.0 0.00 0.00 0.00 56 997.0
20260505173503 39 279 5.0 12.0 0.00 0.00 0.00 54 996.9
20260505173003 39 270 9.0 15.0 0.00 0.00 0.00 52 996.8
20260505172503 40 276 5.0 12.0 0.00 0.00 0.00 51 996.8
20260505172003 40 276 7.0 16.0 0.00 0.00 0.00 50 996.7
20260505171504 40 268 6.0 12.0 0.00 0.00 0.00 49 996.7
20260505171003 40 250 3.0 10.0 0.00 0.00 0.00 49 996.7
20260505170506 40 289 4.0 10.0 0.00 0.00 0.00 48 996.6
20260505170003 40 264 5.0 12.0 0.00 0.00 0.00 48 996.6
20260505165503 40 299 6.0 14.0 0.00 0.00 0.00 47 996.7
20260505164504 41 308 5.0 7.0 0.00 0.00 0.00 45 996.5
20260505164004 42 309 5.0 9.0 0.00 0.00 0.00 43 996.4
20260505163003 42 274 0.0 5.0 0.00 0.00 0.00 44 996.3
20260505162503 41 289 5.0 8.0 0.00 0.00 0.00 45 996.4
20260505162003 41 292 0.0 0.0 0.00 0.00 0.00 45 996.4
20260505161504 42 264 3.0 12.0 0.00 0.00 0.00 45 996.4
20260505161003 42 317 7.0 15.0 0.00 0.00 0.00 44 996.5
20260505153003 41 308 6.0 10.0 0.00 0.00 0.00 41 996.2
20260505152504 42 299 7.0 15.0 0.00 0.00 0.00 40 996.1
20260505152003 42 299 2.0 8.0 0.00 0.00 0.00 41 996.1
20260505151503 41 306 10.0 18.0 0.00 0.00 0.00 41 996.1
20260505151003 41 290 6.0 12.0 0.00 0.00 0.00 42 996.1